W5TUX Weather Reports


time (UTC)temp
F
wind
direction
speed
knots
gust
knots
rain 1hr
in
rain 24hr
in
rain mn
in
humidity
%
barometer
mb
20260906225003 97 130 0.9 1.7 0.00 0.00 0.00 43 1016.4
20260906224459 97 151 1.7 1.7 0.00 0.00 0.00 43 1016.4
20260906223955 97 111 0.9 1.7 0.00 0.00 0.00 43 1016.4
20260906223451 97 214 4.3 6.1 0.00 0.00 0.00 42 1016.4
20260906222949 97 212 2.6 3.5 0.00 0.00 0.00 42 1016.4
20260906222443 97 174 0.9 1.7 0.00 0.00 0.00 42 1016.3
20260906221941 97 29 1.7 2.6 0.00 0.00 0.00 42 1016.7
20260906221435 97 233 2.6 2.6 0.00 0.00 0.00 42 1016.6
20260906220931 97 79 1.7 3.5 0.00 0.00 0.00 43 1016.5
20260906220426 97 238 2.6 2.6 0.00 0.00 0.00 43 1016.4
20260906215924 97 224 2.6 2.6 0.00 0.00 0.00 43 1016.4
20260906215420 97 212 4.3 6.1 0.00 0.00 0.00 42 1016.4
20260906214918 97 56 2.6 5.2 0.00 0.00 0.00 42 1016.4
20260906214417 97 197 3.5 6.1 0.00 0.00 0.00 43 1016.3
20260906213916 97 202 0.9 1.7 0.00 0.00 0.00 42 1016.6
20260906213411 97 204 4.3 6.1 0.00 0.00 0.00 43 1016.4
20260906212908 97 245 2.6 2.6 0.00 0.00 0.00 43 1016.5
20260906212404 98 142 1.7 1.7 0.00 0.00 0.00 42 1016.7
20260906211904 98 175 0.0 0.0 0.00 0.00 0.00 41 1016.8
20260906211359 98 154 2.6 3.5 0.00 0.00 0.00 42 1016.9
20260906210854 98 43 2.6 2.6 0.00 0.00 0.00 42 1016.8
20260906210349 97 117 1.7 1.7 0.00 0.00 0.00 42 1017.0
20260906205844 98 106 4.3 7.0 0.00 0.00 0.00 41 1017.0
20260906205340 98 120 2.6 3.5 0.00 0.00 0.00 42 1017.0
20260906204836 97 138 1.7 2.6 0.00 0.00 0.00 42 1017.2
20260906204334 98 198 1.7 1.7 0.00 0.00 0.00 44 1017.1
20260906203834 97 50 1.7 1.7 0.00 0.00 0.00 42 1017.2
20260906203329 98 128 1.7 3.5 0.00 0.00 0.00 41 1017.3
20260906202826 98 179 2.6 3.5 0.00 0.00 0.00 43 1017.4
20260906202325 99 254 2.6 2.6 0.00 0.00 0.00 42 1017.4
20260906201820 98 61 2.6 5.2 0.00 0.00 0.00 42 1017.4
20260906201320 99 190 3.5 5.2 0.00 0.00 0.00 41 1017.6
20260906200815 99 109 5.2 7.8 0.00 0.00 0.00 42 1017.7
20260906200311 100 161 0.9 2.6 0.00 0.00 0.00 40 1017.6
20260906195806 99 177 3.5 3.5 0.00 0.00 0.00 41 1017.8
20260906195306 99 220 0.9 2.6 0.00 0.00 0.00 41 1017.6
20260906194758 100 218 4.3 5.2 0.00 0.00 0.00 41 1018.0
20260906194254 100 185 1.7 1.7 0.00 0.00 0.00 43 1017.7
20260906193748 97 209 0.0 0.0 0.00 0.00 0.00 45 1017.8
20260906193243 98 130 2.6 2.6 0.00 0.00 0.00 44 1017.9
20260906192739 98 31 5.2 6.1 0.00 0.00 0.00 45 1018.0
20260906192234 98 160 0.9 1.7 0.00 0.00 0.00 45 1018.1
20260906191733 99 206 2.6 5.2 0.00 0.00 0.00 43 1018.2
20260906191228 98 221 3.5 5.2 0.00 0.00 0.00 44 1018.3
20260906190727 98 224 4.3 6.1 0.00 0.00 0.00 45 1018.1
20260906190222 98 149 0.0 0.9 0.00 0.00 0.00 45 1018.3
20260906185721 99 140 1.7 2.6 0.00 0.00 0.00 44 1018.3
20260906185220 98 143 0.9 0.9 0.00 0.00 0.00 45 1018.5
20260906184715 98 62 2.6 3.5 0.00 0.00 0.00 46 1018.5
20260906184210 98 204 0.9 1.7 0.00 0.00 0.00 44 1018.7
20260906183706 97 215 0.9 1.7 0.00 0.00 0.00 46 1018.5
20260906183202 97 241 0.9 1.7 0.00 0.00 0.00 47 1019.0
20260906182702 97 201 0.9 1.7 0.00 0.00 0.00 47 1018.9
20260906182158 98 211 3.5 5.2 0.00 0.00 0.00 46 1018.9
20260906181653 97 202 0.0 0.9 0.00 0.00 0.00 47 1019.0
20260906181149 98 75 1.7 2.6 0.00 0.00 0.00 46 1019.1
20260906180649 98 164 1.7 2.6 0.00 0.00 0.00 46 1019.1
20260906180145 96 292 0.9 1.7 0.00 0.00 0.00 48 1019.1
20260906175642 96 100 1.7 2.6 0.00 0.00 0.00 50 1019.1
20260906175138 97 185 0.9 1.7 0.00 0.00 0.00 48 1019.3
20260906174636 97 79 0.9 0.9 0.00 0.00 0.00 48 1019.4
20260906174131 97 201 2.6 2.6 0.00 0.00 0.00 50 1019.6
20260906173626 97 166 0.9 0.9 0.00 0.00 0.00 47 1019.7
20260906173116 96 57 1.7 2.6 0.00 0.00 0.00 49 1019.6
20260906172616 95 225 2.6 3.5 0.00 0.00 0.00 52 1019.7
20260906172112 95 180 2.6 2.6 0.00 0.00 0.00 51 1019.7
20260906171611 93 178 1.7 2.6 0.00 0.00 0.00 54 1019.9
20260906171107 93 117 1.7 1.7 0.00 0.00 0.00 54 1019.9
20260906170603 95 235 2.6 3.5 0.00 0.00 0.00 51 1019.9
20260906165558 94 200 2.6 2.6 0.00 0.00 0.00 53 1020.1
20260906165052 94 208 5.2 6.1 0.00 0.00 0.00 53 1020.1
20260906164552 93 241 1.7 1.7 0.00 0.00 0.00 54 1020.0
20260906164048 94 225 2.6 2.6 0.00 0.00 0.00 54 1020.1
20260906163543 94 200 2.6 3.5 0.00 0.00 0.00 52 1020.0
20260906163038 93 85 3.5 5.2 0.00 0.00 0.00 53 1020.0
20260906162536 95 64 1.7 2.6 0.00 0.00 0.00 52 1019.8
20260906162031 95 186 1.7 1.7 0.00 0.00 0.00 52 1019.9
20260906161526 94 135 1.7 2.6 0.00 0.00 0.00 53 1020.0
20260906161024 94 131 0.9 0.9 0.00 0.00 0.00 52 1019.8
20260906160524 93 86 1.7 2.6 0.00 0.00 0.00 54 1019.9
20260906160022 92 47 3.5 5.2 0.00 0.00 0.00 56 1019.8
20260906155520 92 187 1.7 2.6 0.00 0.00 0.00 56 1019.7
20260906155016 92 97 0.0 0.0 0.00 0.00 0.00 57 1019.8
20260906154512 91 234 0.0 0.9 0.00 0.00 0.00 58 1019.9
20260906154010 94 192 1.7 1.7 0.00 0.00 0.00 57 1019.8
20260906153509 91 174 0.9 0.9 0.00 0.00 0.00 60 1019.8
20260906153005 90 214 0.0 0.9 0.00 0.00 0.00 64 1019.9
20260906152459 91 40 0.9 2.6 0.00 0.00 0.00 61 1019.7
20260906151953 90 98 0.9 0.9 0.00 0.00 0.00 64 1019.7
20260906151448 91 226 0.9 0.9 0.00 0.00 0.00 63 1019.7
20260906150944 90 86 0.9 0.9 0.00 0.00 0.00 64 1019.7
20260906150439 89 169 0.0 0.9 0.00 0.00 0.00 66 1019.6
20260906145938 89 63 0.9 0.9 0.00 0.00 0.00 66 1019.5
20260906145437 88 170 0.0 0.9 0.00 0.00 0.00 68 1019.7
20260906144932 90 192 0.0 0.9 0.00 0.00 0.00 67 1019.7
20260906144427 89 68 0.9 1.7 0.00 0.00 0.00 66 1019.6
20260906143922 88 210 0.9 1.7 0.00 0.00 0.00 69 1019.6
20260906143418 88 84 0.0 0.9 0.00 0.00 0.00 70 1019.8
20260906142914 88 100 1.7 1.7 0.00 0.00 0.00 70 1019.6
20260906142413 87 106 0.9 0.9 0.00 0.00 0.00 72 1019.6
20260906141908 86 142 0.0 0.0 0.00 0.00 0.00 74 1019.9
20260906141408 86 136 0.9 0.9 0.00 0.00 0.00 75 1019.8
20260906140902 86 140 0.9 0.9 0.00 0.00 0.00 76 1019.6
20260906140357 85 110 0.9 0.9 0.00 0.00 0.00 77 1019.6
20260906135854 85 94 1.7 2.6 0.00 0.00 0.00 77 1019.6
20260906135349 84 165 0.0 0.0 0.00 0.00 0.00 80 1019.8
20260906134844 84 80 1.7 1.7 0.00 0.00 0.00 80 1019.6
20260906134339 83 160 0.0 0.0 0.00 0.00 0.00 80 1019.5
20260906133834 83 112 0.9 1.7 0.00 0.00 0.00 81 1019.5
20260906133325 83 133 0.0 0.0 0.00 0.00 0.00 82 1019.7
20260906132820 82 163 0.0 0.9 0.00 0.00 0.00 83 1019.6
20260906132315 81 77 1.7 1.7 0.00 0.00 0.00 84 1019.7
20260906131810 81 79 0.0 0.0 0.00 0.00 0.00 84 1020.0
20260906131305 81 94 1.7 1.7 0.00 0.00 0.00 85 1019.6
20260906130801 80 143 0.9 0.9 0.00 0.00 0.00 85 1019.8
20260906130256 80 135 0.0 0.0 0.00 0.00 0.00 85 1019.6
20260906125755 80 158 0.0 0.0 0.00 0.00 0.00 86 1019.7
20260906125252 79 146 0.0 0.0 0.00 0.00 0.00 86 1019.5
20260906124753 78 148 0.0 0.0 0.00 0.00 0.00 88 1019.4
20260906124249 77 172 0.0 0.0 0.00 0.00 0.00 90 1019.4
20260906123747 77 121 0.0 0.0 0.00 0.00 0.00 91 1019.3
20260906123243 77 153 0.0 0.0 0.00 0.00 0.00 92 1019.3
20260906122742 76 98 0.0 0.0 0.00 0.00 0.00 92 1019.6
20260906122238 76 198 0.0 0.0 0.00 0.00 0.00 92 1019.2
20260906121734 76 162 0.0 0.0 0.00 0.00 0.00 92 1019.3
20260906121230 76 168 0.0 0.0 0.00 0.00 0.00 92 1019.3
20260906120726 76 165 0.0 0.0 0.00 0.00 0.00 92 1019.0
20260906120222 76 159 0.0 0.0 0.00 0.00 0.00 92 1019.2
20260906115718 76 107 0.0 0.0 0.00 0.00 0.00 92 1019.0
20260906115213 76 173 0.0 0.0 0.00 0.00 0.00 92 1019.1
20260906114712 76 182 0.0 0.0 0.00 0.00 0.00 92 1018.9
20260906114207 76 177 0.0 0.0 0.00 0.00 0.00 91 1018.9
20260906113701 77 176 0.0 0.0 0.00 0.00 0.00 91 1018.8
20260906113201 77 180 0.0 0.0 0.00 0.00 0.00 91 1018.8
20260906112700 77 141 0.0 0.0 0.00 0.00 0.00 91 1018.9
20260906112158 77 186 0.0 0.0 0.00 0.00 0.00 91 1018.7
20260906111657 77 198 0.0 0.0 0.00 0.00 0.00 91 1018.8
20260906111152 77 166 0.0 0.0 0.00 0.00 0.00 91 1018.9
20260906110647 77 181 0.0 0.0 0.00 0.00 0.00 91 1018.7
20260906110142 77 171 0.0 0.0 0.00 0.00 0.00 90 1018.9
20260906105636 77 170 0.0 0.0 0.00 0.00 0.00 90 1018.7
20260906105132 77 164 0.0 0.0 0.00 0.00 0.00 90 1018.7
20260906104631 77 184 0.0 0.0 0.00 0.00 0.00 90 1018.4
20260906104131 77 166 0.0 0.0 0.00 0.00 0.00 90 1018.3
20260906103629 77 178 0.0 0.0 0.00 0.00 0.00 89 1018.5
20260906103124 77 182 0.0 0.0 0.00 0.00 0.00 89 1018.4
20260906102620 77 173 0.0 0.0 0.00 0.00 0.00 89 1018.5
20260906102114 77 162 0.0 0.0 0.00 0.00 0.00 89 1018.3
20260906101614 78 152 0.0 0.0 0.00 0.00 0.00 88 1018.3
20260906101109 78 141 0.0 0.0 0.00 0.00 0.00 88 1018.5
20260906100604 78 133 0.0 0.0 0.00 0.00 0.00 88 1018.5
20260906100059 78 164 0.0 0.0 0.00 0.00 0.00 88 1018.3
20260906095559 78 139 0.0 0.0 0.00 0.00 0.00 88 1018.3
20260906095054 78 150 0.0 0.0 0.00 0.00 0.00 88 1018.2
20260906094553 78 141 0.0 0.0 0.00 0.00 0.00 87 1018.4
20260906094049 78 147 0.0 0.0 0.00 0.00 0.00 87 1018.2
20260906093545 78 110 0.0 0.0 0.00 0.00 0.00 87 1018.1
20260906093040 78 138 0.0 0.0 0.00 0.00 0.00 87 1018.1
20260906092535 78 126 0.0 0.0 0.00 0.00 0.00 87 1017.9
20260906092030 78 133 0.0 0.0 0.00 0.00 0.00 87 1018.0
20260906091525 78 142 0.0 0.0 0.00 0.00 0.00 86 1017.9
20260906091022 78 153 0.0 0.0 0.00 0.00 0.00 86 1018.1
20260906090521 78 127 0.0 0.0 0.00 0.00 0.00 86 1017.9
20260906090017 78 166 0.0 0.0 0.00 0.00 0.00 86 1017.8
20260906085515 78 186 0.0 0.0 0.00 0.00 0.00 86 1017.9
20260906085010 78 98 0.0 0.0 0.00 0.00 0.00 85 1017.6
20260906084509 79 156 0.9 0.9 0.00 0.00 0.00 85 1017.6
20260906084008 79 170 0.0 0.0 0.00 0.00 0.00 84 1017.7
20260906083504 79 179 0.0 0.0 0.00 0.00 0.00 84 1017.7
20260906083003 79 164 0.0 0.0 0.00 0.00 0.00 83 1017.7
20260906082459 79 90 0.0 0.0 0.00 0.00 0.00 83 1017.8
20260906081954 79 187 0.0 0.0 0.00 0.00 0.00 82 1017.7
20260906081449 79 191 0.0 0.0 0.00 0.00 0.00 82 1017.6
20260906080945 79 200 0.0 0.0 0.00 0.00 0.00 82 1017.7
20260906080443 80 197 0.0 0.0 0.00 0.00 0.00 81 1017.7
20260906075942 80 186 0.0 0.0 0.00 0.00 0.00 81 1017.5
20260906075437 80 204 0.9 0.9 0.00 0.00 0.00 81 1017.8
20260906074932 79 193 0.0 0.0 0.00 0.00 0.00 81 1017.9
20260906074426 79 188 0.0 0.0 0.00 0.00 0.00 81 1017.8
20260906073925 80 194 0.0 0.0 0.00 0.00 0.00 81 1017.8
20260906073420 80 155 0.0 0.0 0.00 0.00 0.00 80 1017.8
20260906072917 80 154 0.9 0.9 0.00 0.00 0.00 80 1017.6
20260906072412 80 172 0.0 0.0 0.00 0.00 0.00 80 1017.5
20260906071908 80 195 0.0 0.0 0.00 0.00 0.00 79 1017.6
20260906071403 80 192 0.0 0.9 0.00 0.00 0.00 79 1017.8
20260906070859 80 192 0.9 0.9 0.00 0.00 0.00 78 1017.8
20260906070355 80 213 0.9 0.9 0.00 0.00 0.00 78 1018.1
20260906065850 80 175 0.0 0.0 0.00 0.00 0.00 78 1018.2
20260906065344 80 188 0.0 0.0 0.00 0.00 0.00 78 1018.0
20260906064841 81 195 0.0 0.0 0.00 0.00 0.00 78 1018.2
20260906064337 81 179 0.0 0.0 0.00 0.00 0.00 77 1018.1
20260906063836 81 207 0.0 0.0 0.00 0.00 0.00 77 1018.1
20260906063332 81 164 0.0 0.0 0.00 0.00 0.00 76 1018.2
20260906062827 81 197 0.0 0.0 0.00 0.00 0.00 76 1018.3
20260906062326 82 204 0.0 0.0 0.00 0.00 0.00 76 1018.0
20260906061822 82 193 0.0 0.9 0.00 0.00 0.00 75 1017.9
20260906061318 82 203 0.0 0.0 0.00 0.00 0.00 75 1018.0
20260906060812 82 179 0.0 0.9 0.00 0.00 0.00 74 1018.0
20260906060310 82 215 0.9 1.7 0.00 0.00 0.00 74 1018.1
20260906055806 82 138 0.0 0.9 0.00 0.00 0.00 75 1017.9
20260906055301 82 155 0.0 0.0 0.00 0.00 0.00 74 1018.1
20260906054756 82 133 0.0 0.9 0.00 0.00 0.00 74 1018.2
20260906054251 82 175 0.0 0.9 0.00 0.00 0.00 74 1018.1
20260906053748 82 92 0.0 0.0 0.00 0.00 0.00 74 1018.4
20260906053243 82 166 0.0 0.0 0.00 0.00 0.00 74 1018.1
20260906052738 83 151 0.0 0.0 0.00 0.00 0.00 74 1018.0
20260906052234 83 171 0.0 0.0 0.00 0.00 0.00 73 1018.0
20260906051731 83 171 1.7 1.7 0.00 0.00 0.00 72 1017.9
20260906051231 83 204 0.0 0.9 0.00 0.00 0.00 73 1017.9
20260906050726 83 221 1.7 1.7 0.00 0.00 0.00 73 1017.9
20260906050221 83 212 0.9 0.9 0.00 0.00 0.00 73 1017.9
20260906045720 83 214 0.0 0.0 0.00 0.00 0.00 73 1018.0
20260906045215 83 196 0.9 0.9 0.00 0.00 0.00 73 1017.9
20260906044711 83 140 0.0 0.9 0.00 0.00 0.00 73 1017.8
20260906044206 83 186 0.0 0.0 0.00 0.00 0.00 72 1017.9
20260906043702 84 183 0.9 0.9 0.00 0.00 0.00 72 1018.1
20260906043158 84 183 0.9 0.9 0.00 0.00 0.00 71 1018.0
20260906042657 84 176 0.0 0.9 0.00 0.00 0.00 71 1017.9
20260906042156 84 191 0.0 0.0 0.00 0.00 0.00 71 1017.9
20260906041652 84 225 0.0 0.0 0.00 0.00 0.00 70 1018.0
20260906041147 84 194 0.9 0.9 0.00 0.00 0.00 71 1018.2
20260906040643 84 140 0.9 0.9 0.00 0.00 0.00 70 1017.9
20260906040138 85 162 0.0 0.9 0.00 0.00 0.00 70 1018.0
20260906035633 85 188 0.9 0.9 0.00 0.00 0.00 69 1018.0
20260906035129 85 195 2.6 2.6 0.00 0.00 0.00 69 1017.9
20260906034629 85 212 1.7 1.7 0.00 0.00 0.00 69 1018.2
20260906034124 85 174 0.0 0.0 0.00 0.00 0.00 69 1018.0
20260906033620 85 186 0.0 0.0 0.00 0.00 0.00 69 1017.9
20260906033120 85 186 0.0 0.0 0.00 0.00 0.00 68 1017.9
20260906032617 85 178 0.0 0.0 0.00 0.00 0.00 68 1018.0
20260906032116 85 183 0.0 0.0 0.00 0.00 0.00 67 1018.1
20260906031612 86 207 0.0 0.0 0.00 0.00 0.00 67 1018.1
20260906031107 86 176 0.9 1.7 0.00 0.00 0.00 66 1018.0
20260906030606 86 161 0.9 1.7 0.00 0.00 0.00 66 1018.1
20260906030101 86 217 0.0 0.0 0.00 0.00 0.00 65 1018.0
20260906025555 86 152 0.9 1.7 0.00 0.00 0.00 65 1018.0
20260906025054 86 158 0.0 0.9 0.00 0.00 0.00 64 1018.0
20260906024549 86 197 0.0 0.0 0.00 0.00 0.00 64 1018.1
20260906024044 86 217 0.0 0.0 0.00 0.00 0.00 64 1017.9
20260906023540 86 224 0.9 1.7 0.00 0.00 0.00 63 1017.7
20260906023034 87 192 0.0 0.0 0.00 0.00 0.00 63 1017.6
20260906022530 87 100 1.7 1.7 0.00 0.00 0.00 62 1017.6
20260906022025 87 206 0.9 0.9 0.00 0.00 0.00 62 1017.4
20260906021520 87 218 1.7 1.7 0.00 0.00 0.00 62 1017.6
20260906021014 87 175 0.0 0.0 0.00 0.00 0.00 62 1017.5
20260906020514 87 208 1.7 1.7 0.00 0.00 0.00 61 1017.5
20260906020014 87 215 1.7 1.7 0.00 0.00 0.00 61 1017.3
20260906015513 88 201 0.9 1.7 0.00 0.00 0.00 61 1017.3
20260906015012 88 200 0.0 0.9 0.00 0.00 0.00 60 1017.1
20260906014507 88 215 1.7 1.7 0.00 0.00 0.00 60 1017.0
20260906014003 89 217 0.9 1.7 0.00 0.00 0.00 60 1017.1
20260906013458 89 189 2.6 5.2 0.00 0.00 0.00 59 1017.1
20260906012948 89 169 1.7 1.7 0.00 0.00 0.00 59 1016.9
20260906012443 89 99 1.7 2.6 0.00 0.00 0.00 58 1017.0
20260906011942 90 123 1.7 2.6 0.00 0.00 0.00 57 1016.7
20260906011438 90 118 1.7 1.7 0.00 0.00 0.00 56 1016.7
20260906010933 91 139 1.7 2.6 0.00 0.00 0.00 55 1016.5
20260906010428 92 194 3.5 3.5 0.00 0.00 0.00 54 1016.6
20260906005925 92 176 0.9 1.7 0.00 0.00 0.00 53 1016.3
20260906005424 93 213 3.5 5.2 0.00 0.00 0.00 51 1016.4
20260906004923 93 133 0.9 1.7 0.00 0.00 0.00 49 1016.2
20260906004417 94 183 0.0 0.0 0.00 0.00 0.00 47 1016.0
20260906003913 94 227 0.0 0.0 0.00 0.00 0.00 47 1016.1
20260906003408 94 182 0.0 0.0 0.00 0.00 0.00 46 1016.2
20260906002903 95 181 0.0 0.0 0.00 0.00 0.00 46 1016.2
20260906002403 95 185 0.0 0.0 0.00 0.00 0.00 46 1016.1
20260906001858 95 146 0.0 0.0 0.00 0.00 0.00 45 1016.2
20260906001353 95 104 0.0 0.0 0.00 0.00 0.00 45 1016.2
20260906000848 95 151 0.0 0.0 0.00 0.00 0.00 45 1016.2
20260906000348 95 112 0.0 0.0 0.00 0.00 0.00 44 1016.2
20260905235843 96 204 1.7 1.7 0.00 0.00 0.00 44 1016.1
20260905235337 96 182 0.0 0.0 0.00 0.00 0.00 45 1016.1
20260905234833 96 198 0.0 0.0 0.00 0.00 0.00 44 1016.0
20260905234328 96 134 0.9 1.7 0.00 0.00 0.00 44 1015.9
20260905233823 96 182 0.9 0.9 0.00 0.00 0.00 43 1015.8
20260905233318 96 174 0.0 0.0 0.00 0.00 0.00 43 1015.8
20260905232817 97 166 1.7 3.5 0.00 0.00 0.00 43 1016.1
20260905232314 96 104 0.9 0.9 0.00 0.00 0.00 44 1016.1
20260905231809 97 192 0.0 0.9 0.00 0.00 0.00 43 1016.0
20260905231303 97 216 1.7 2.6 0.00 0.00 0.00 43 1016.0
20260905230800 97 129 0.9 0.9 0.00 0.00 0.00 43 1016.1
20260905230257 97 212 1.7 1.7 0.00 0.00 0.00 42 1016.0
20260905225752 97 196 0.9 0.9 0.00 0.00 0.00 43 1016.1